Stations météo

réclame
Mon MeteoGroup
Le Touquet, France (7003): Température de l'air & dewpoint: 20.08.2019 02:00:00 - 26.08.2019 02:00:00 (CEST)Le Touquet, France (7003): Température de l'air 5cm: 20.08.2019 02:00:00 - 26.08.2019 02:00:00 (CEST)Le Touquet, France (7003): Vitesse du vent & gusts: 20.08.2019 02:00:00 - 26.08.2019 02:00:00 (CEST)Le Touquet, France (7003): Direction du vent: 20.08.2019 02:00:00 - 26.08.2019 02:00:00 (CEST)Le Touquet, France (7003): reduced air pressure: 20.08.2019 02:00:00 - 26.08.2019 02:00:00 (CEST)Le Touquet, France (7003): visibility: 20.08.2019 02:00:00 - 26.08.2019 02:00:00 (CEST)Le Touquet, France (7003): Ensoleillement: 20.08.2019 02:00:00 - 26.08.2019 02:00:00 (CEST)Le Touquet, France (7003): Quantités de précipitations: 20.08.2019 02:00:00 - 26.08.2019 02:00:00 (CEST)
Date & Time tt [°C] td [°C] tt 5cm [°C] ff [km/h] ff [knt] fx [km/h] fx [knt] dd ppp [hPa] vv [km] sd [min] rr [mm]
26.08.2019 02:00:00 20,4 13,8 16,6 9 5 14 7 SE 1018,8 23 0 0,0
26.08.2019 01:00:00 20,2 13,9 17,0 8 4 14 7 SSE 1019,2 27 0 0,0
26.08.2019 00:00:00 21,3 13,7 18,1 9 5 16 9 SE 1019,2 28 0 0,0
25.08.2019 23:00:00 22,0 13,4 18,8 8 4 32 17 SE 1019,2 40 0 0,0
25.08.2019 22:00:00 23,9 13,1 20,5 15 8 30 16 E 1018,9 20 0 0,0
25.08.2019 21:00:00 25,0 15,3 20,5 8 4 17 9 ENE 1018,4 44 24 0,0
25.08.2019 20:00:00 27,5 14,5 24,4 7 4 14 7 NE 1018,2 57 53 0,0
25.08.2019 19:00:00 29,7 13,5 28,3 6 4 16 8 NNW 1018,1 59 60 0,0
25.08.2019 18:00:00 29,4 13,6 31,6 9 5 18 10 NNW 1018,1 31 60 0,0
25.08.2019 17:00:00 29,0 15,5 32,6 13 7 24 13 NNW 1018,2 31 60 0,0
25.08.2019 16:00:00 29,8 15,9 34,6 15 8 25 14 NNW 1018,4 36 60 0,0
25.08.2019 15:00:00 30,1 12,5 36,4 8 4 23 13 NW 1018,5 60 60 0,0
25.08.2019 14:00:00 29,5 13,7 37,7 7 4 16 9 NW 1018,4 20 60 0,0
25.08.2019 13:00:00 29,4 13,6 36,5 5 3 16 9 S 1018,6 49 60 0,0
25.08.2019 12:00:00 28,1 16,4 32,5 4 2 19 10 SE 1018,8 35 60 0,0
25.08.2019 11:00:00 25,5 15,8 28,6 10 5 18 10 ESE 1018,8 18 60 0,0
25.08.2019 10:00:00 23,0 16,5 23,4 10 5 16 9 SSE 1018,6 18 60 0,0
25.08.2019 09:00:00 18,3 15,2 15,3 8 4 16 9 SSE 1018,3 24 40 0,0
25.08.2019 08:00:00 15,8 13,8 14,4 9 5 16 9 SSE 1017,9 18 13 0,0
25.08.2019 07:00:00 15,6 13,6 14,3 9 5 16 9 SSE 1017,7 18 0 0,0
25.08.2019 06:00:00 16,0 13,7 14,9 10 5 16 9 SSE 1017,4 20 0 0,0
25.08.2019 05:00:00 16,0 13,7 14,7 11 6 15 8 SSE 1017,5 20 0 0,0
25.08.2019 04:00:00 16,1 13,6 14,7 10 5 17 9 SSE 1017,4 21 0 0,0
25.08.2019 03:00:00 16,5 13,6 15,0 11 6 18 10 SSE 1017,5 23 0 0,0
25.08.2019 02:00:00 17,0 14,1 14,2 11 6 16 9 SSE 1017,7 22 0 0,0
25.08.2019 01:00:00 17,9 14,0 14,3 8 4 13 7 S 1017,6 27 0 0,0
25.08.2019 00:00:00 19,1 13,9 14,9 7 4 13 7 S 1017,7 32 0 0,0
24.08.2019 23:00:00 19,5 14,7 13,9 7 4 10 6 SSE 1017,6 22 0 0,0
24.08.2019 22:00:00 19,9 15,1 15,0 2 1 6 3 S 1017,5 23 0 0,0
24.08.2019 21:00:00 22,4 15,7 16,0 4 2 13 7 NNW 1017,4 13 3 0,0
24.08.2019 20:00:00 23,8 17,1 22,2 10 6 22 12 NNW 1017,4 12 56 0,0
24.08.2019 19:00:00 27,0 14,4 25,9 11 6 24 13 NW 1017,5 28 50 0,0
24.08.2019 18:00:00 26,9 15,6 27,4 13 7 28 15 NNW 1017,8 20 50 0,0
24.08.2019 17:00:00 27,5 14,5 31,1 20 11 31 17 NW 1017,9 26 60 0,0
24.08.2019 16:00:00 26,9 15,0 31,1 16 9 29 16 NW 1018,4 29 60 0,0
24.08.2019 15:00:00 26,9 15,6 33,5 18 10 31 17 NNW 1018,7 19 60 0,0
24.08.2019 14:00:00 28,8 12,2 35,0 11 6 29 16 ESE 1018,8 41 60 0,0
24.08.2019 13:00:00 28,3 13,0 31,8 15 8 25 14 ESE 1019,3 20 60 0,0
24.08.2019 12:00:00 25,8 13,6 29,8 11 6 19 11 SE 1019,8 18 60 0,0
24.08.2019 11:00:00 23,4 14,7 26,6 12 7 20 11 SE 1020,0 7 60 0,0
24.08.2019 10:00:00 21,0 16,2 20,5 9 5 14 8 SE 1020,0 4,7 60 0,0
24.08.2019 09:00:00 16,4 14,2 15,7 9 5 15 8 SSE 1020,2 2,2 60 0,0
24.08.2019 08:00:00 14,0 12,6 11,7 8 5 14 7 SSE 1020,0 3,6 38 0,0
24.08.2019 07:00:00 13,2 12,1 11,6 8 4 15 8 SSE 1020,1 4,1 0 0,0
24.08.2019 06:00:00 13,7 12,4 11,9 9 5 14 7 SSE 1020,2 4,7 0 0,0
24.08.2019 05:00:00 14,5 12,7 12,2 8 5 13 7 SSE 1020,6 7 0 0,0
24.08.2019 04:00:00 15,2 12,9 12,2 8 5 12 6 SSE 1020,8 8 0 0,0
24.08.2019 03:00:00 15,6 13,1 12,6 6 4 14 7 S 1021,1 9 0 0,0
24.08.2019 02:00:00 16,4 13,3 13,5 9 5 17 9 SSE 1021,5 11 0 0,0
24.08.2019 01:00:00 16,9 13,2 13,3 8 5 16 9 SE 1021,8 14 0 0,0
24.08.2019 00:00:00 17,5 13,4 13,0 8 5 18 10 SSE 1022,0 19 0 0,0
23.08.2019 23:00:00 16,9 14,5 11,6 2 1 7 4 SW 1022,2 27 0 0,0
23.08.2019 22:00:00 18,2 15,4 12,2 2 1 15 8 NNW 1022,4 16 0 0,0
23.08.2019 21:00:00 19,3 16,7 17,5 11 6 20 11 NW 1022,5 17 28 0,0
23.08.2019 20:00:00 20,5 16,7 19,9 15 8 25 14 NNW 1022,5 20 60 0,0
23.08.2019 19:00:00 21,9 16,4 22,2 16 9 24 13 NNW 1022,6 16 60 0,0
23.08.2019 18:00:00 22,8 16,3 24,9 15 8 27 15 NW 1023,2 23 60 0,0
23.08.2019 17:00:00 22,5 16,1 27,0 16 9 26 14 NW 1023,7 26 60 0,0
23.08.2019 16:00:00 21,3 16,0 26,3 18 10 34 18 NNW 1024,4 20 60 0,0
23.08.2019 15:00:00 21,9 16,2 28,1 19 10 30 16 NNW 1024,8 20 60 0,0
23.08.2019 14:00:00 24,2 11,8 32,4 5 3 21 11 S 1024,9 60 60 0,0
23.08.2019 13:00:00 22,5 12,4 29,6 6 4 19 10 SSE 1025,5 19 60 0,0
23.08.2019 12:00:00 20,9 14,3 25,3 9 5 17 9 SSE 1025,8 17 49 0,0
23.08.2019 11:00:00 19,3 14,1 23,5 3 2 8 4 S 1026,1 20 57 0,0
23.08.2019 10:00:00 16,3 13,4 18,0 5 3 14 7 SE 1026,3 18 60 0,0
23.08.2019 09:00:00 13,3 11,9 11,4 8 4 13 7 SE 1026,3 16 60 0,0
23.08.2019 08:00:00 10,9 10,3 8,6 6 3 14 7 SSE 1026,2 15 35 0,2
23.08.2019 07:00:00 9,6 9,1 8,1 10 5 15 8 SSE 1026,1 12 0 0,0
23.08.2019 06:00:00 9,9 9,3 7,3 5 3 11 6 S 1025,9 12 0 0,0
23.08.2019 05:00:00 10,1 9,3 6,9 4 2 9 5 SSE 1026,3 12 0 0,0
23.08.2019 04:00:00 10,5 9,7 8,5 7 4 11 6 SSE 1026,3 13 0 0,0
23.08.2019 03:00:00 11,6 10,5 8,5 5 3 9 5 SSE 1026,4 16 0 0,0
23.08.2019 02:00:00 11,6 10,7 6,6 7 4 11 6 SSE 1026,5 18 0 0,0
23.08.2019 01:00:00 11,8 10,9 7,0 4 2 9 5 SSE 1026,5 15 0 0,0
23.08.2019 00:00:00 12,7 11,3 8,0 6 3 13 7 SSE 1026,5 20 0 0,0
22.08.2019 23:00:00 13,5 11,7 9,0 5 3 12 7 S 1026,4 28 0 0,0
22.08.2019 22:00:00 14,2 11,9 9,0 0 0 5 3 N 1026,5 40 0 0,0
22.08.2019 21:00:00 16,8 12,1 13,0 3 2 15 8 W 1026,2 60 30 0,0
22.08.2019 20:00:00 18,9 11,5 17,7 10 5 24 13 WNW 1026,0 51 60 0,0
22.08.2019 19:00:00 19,7 11,7 20,7 13 7 31 17 WNW 1026,1 30 60 0,0
22.08.2019 18:00:00 19,6 13,8 23,6 14 8 31 17 W 1026,3 20 60 0,0
22.08.2019 17:00:00 20,0 13,5 25,8 14 8 29 16 W 1026,4 30 60 0,0
22.08.2019 16:00:00 20,2 14,1 26,9 14 8 29 16 W 1026,5 32 60 0,0
22.08.2019 15:00:00 20,0 12,7 28,7 13 7 29 16 W 1026,7 37 60 0,0
22.08.2019 14:00:00 19,6 12,6 28,9 14 8 32 17 W 1027,0 52 60 0,0
22.08.2019 13:00:00 19,6 11,9 28,9 13 7 27 15 WNW 1027,0 60 60 0,0
22.08.2019 12:00:00 19,3 12,1 28,0 11 6 23 13 W 1027,1 28 60 0,0
22.08.2019 11:00:00 18,6 12,1 24,3 8 5 17 9 W 1026,8 60 60 0,0
22.08.2019 10:00:00 16,4 13,5 17,5 4 2 8 4 SSE 1026,7 13 60 0,0
22.08.2019 09:00:00 12,9 11,6 11,5 5 3 10 5 SSE 1026,5 11 60 0,0
22.08.2019 08:00:00 10,4 9,8 5,8 4 2 9 5 S 1026,5 11 21 0,0
22.08.2019 07:00:00 9,5 8,9 5,8 4 2 9 5 S 1026,0 5 0 0,0
22.08.2019 06:00:00 10,0 9,4 8,0 7 4 11 6 SSE 1025,7 12 0 0,0
22.08.2019 05:00:00 10,6 10,0 8,4 5 3 10 5 S 1025,7 10 0 0,0
22.08.2019 04:00:00 10,7 10,1 7,5 7 4 13 7 SSE 1025,9 12 0 0,0
22.08.2019 03:00:00 11,2 10,9 6,1 4 2 7 4 SSE 1026,1 5 0 0,2
22.08.2019 02:00:00 11,7 11,1 6,2 0 0 4 2 N 1026,4 10 0 0,0
22.08.2019 01:00:00 12,3 11,5 7,2 0 0 5 3 N 1026,5 11 0 0,0
22.08.2019 00:00:00 13,0 11,7 7,8 0 0 7 4 N 1026,5 7 0 0,0
21.08.2019 23:00:00 14,6 12,8 10,1 5 3 8 4 SSE 1026,5 14 0 0,0
21.08.2019 22:00:00 15,2 13,6 9,5 0 0 10 6 N 1026,7 20 0 0,0
21.08.2019 21:00:00 16,7 13,8 14,4 8 4 16 9 NNW 1026,4 18 32 0,0
21.08.2019 20:00:00 18,4 13,9 17,7 11 6 23 12 NNW 1026,2 34 60 0,0
21.08.2019 19:00:00 19,1 13,9 20,1 16 8 27 15 NNW 1026,5 20 60 0,0
21.08.2019 18:00:00 19,7 13,4 22,6 18 10 28 15 NNW 1026,9 20 60 0,0
21.08.2019 17:00:00 20,6 14,0 26,0 12 6 23 13 NNW 1026,9 20 60 0,0
21.08.2019 16:00:00 20,2 13,4 27,1 10 6 27 15 NNW 1027,2 16 60 0,0
21.08.2019 15:00:00 20,2 13,4 28,1 14 8 28 15 NW 1027,8 18 60 0,0
21.08.2019 14:00:00 19,8 13,5 22,7 11 6 26 14 W 1028,0 23 33 0,0
21.08.2019 13:00:00 19,0 14,0 21,5 6 4 24 13 WSW 1028,3 20 16 0,0
21.08.2019 12:00:00 18,5 14,4 21,5 11 6 21 11 WSW 1028,8 34 17 0,0
21.08.2019 11:00:00 18,6 14,9 21,5 6 3 14 8 SSE 1028,8 19 60 0,0
21.08.2019 10:00:00 15,2 13,2 17,1 9 5 16 9 SE 1028,9 18 60 0,0
21.08.2019 09:00:00 12,6 11,5 11,9 11 6 16 8 SE 1028,8 16 60 0,0
21.08.2019 08:00:00 10,0 9,7 8,7 8 5 15 8 SSE 1028,6 14 43 0,0
21.08.2019 07:00:00 9,9 9,6 8,0 7 4 14 8 SSE 1028,4 15 0 0,0
21.08.2019 06:00:00 10,4 9,9 8,8 8 4 13 7 SSE 1028,0 15 0 0,0
21.08.2019 05:00:00 10,4 9,8 8,8 8 4 12 7 SSE 1027,8 16 0 0,0
21.08.2019 04:00:00 11,4 10,6 10,2 7 4 12 6 SSE 1027,9 19 0 0,0
21.08.2019 03:00:00 12,0 11,1 11,6 6 3 11 6 SSE 1027,7 19 0 0,0
21.08.2019 02:00:00 12,1 11,2 9,5 6 3 12 6 SSE 1027,9 19 0 0,0
21.08.2019 01:00:00 12,2 11,3 9,0 8 4 13 7 SE 1027,8 20 0 0,0
21.08.2019 00:00:00 12,8 11,0 9,9 7 4 10 6 SE 1027,6 20 0 0,0
20.08.2019 23:00:00 16,0 11,8 12,6 7 4 16 9 W 1027,5 44 0 0,0
20.08.2019 22:00:00 16,1 11,7 13,2 8 4 18 10 W 1027,2 47 0 0,0
20.08.2019 21:00:00 16,4 11,8 14,3 9 5 27 14 W 1026,8 51 34 0,0
20.08.2019 20:00:00 17,4 11,7 17,0 13 7 33 18 W 1026,3 39 60 0,0
20.08.2019 19:00:00 18,2 10,8 19,4 16 9 38 20 W 1026,0 31 60 0,0
20.08.2019 18:00:00 18,7 11,3 22,1 16 9 36 19 W 1025,7 20 60 0,0
20.08.2019 17:00:00 18,7 11,0 23,4 22 12 42 23 W 1025,4 19 60 0,0
20.08.2019 16:00:00 18,9 12,2 23,8 18 10 40 22 W 1025,1 25 49 0,0
20.08.2019 15:00:00 18,6 12,1 25,1 21 11 38 21 W 1025,0 20 58 0,0
20.08.2019 14:00:00 18,6 11,7 22,9 17 9 35 19 W 1024,5 20 37 0,0
20.08.2019 13:00:00 18,7 12,9 19,3 14 8 37 20 WNW 1024,0 32 28 0,0
20.08.2019 12:00:00 18,2 12,6 20,0 17 9 33 18 W 1023,8 36 20 0,0
20.08.2019 11:00:00 17,7 12,4 20,5 16 9 32 17 W 1023,6 60 37 0,0
20.08.2019 10:00:00 17,3 12,8 15,5 10 5 24 13 W 1023,1 27 49 0,0
20.08.2019 09:00:00 15,0 13,9 14,0 0 0 15 8 N 1022,7 20 22 0,0
20.08.2019 08:00:00 14,3 13,3 13,4 6 3 27 14 SW 1022,1 19 0 3,4
20.08.2019 07:00:00 16,1 12,5 14,1 11 6 29 16 NW 1021,3 18 0 0,0
20.08.2019 06:00:00 15,9 12,5 13,6 10 5 26 14 WSW 1020,7 20 0 0,0
20.08.2019 05:00:00 16,3 12,6 14,8 10 5 26 14 W 1020,8 20 0 0,0
20.08.2019 04:00:00 16,3 12,8 15,1 11 6 33 18 W 1020,8 18 0 0,0
20.08.2019 03:00:00 16,5 13,0 15,2 14 8 34 19 W 1020,9 18 0 0,0
20.08.2019 02:00:00 16,6 12,7 15,2 15 8 34 19 W 1020,8 19 0 0,0

tt = Température de l'air
td = dewpoint
tt 5cm = Température de l'air 5cm
ff = Vitesse du vent
fx = gusts
dd = Direction du vent
ppp = reduced air pressure
vv = visibility
sd = Ensoleillement
rr = Quantités de précipitations

stations d'obs. à proximité